Wind_Speed
4 4 1 3 5 5 5 5 6 6 6 7 5 4 4 2 3 5 4 5 2 2 2 3 3 6 7 8 10 6 4 4 7 6 7 7 5 6 6 7 8 9 8 9 13 16 19 21 21 20 19 18 18 18 17 14 13 11 7 5 5 7 11 13 15 17 19 21 21 21 21 20 19 19 19 18 16 16 13 11 10 11 12 11 11 13
5 4 4 7 7 5 5 4 7 7 6 6 5 3 1 2 4 5 3 5 4 2 3 2 3 8 8 9 10 7 6 7 7 6 7 8 6 5 6 8 8 6 4 4 9 14 18 20 20 21 21 21 21 19 18 16 13 11 8 4 5 8 11 13 14 16 18 20 20 20 20 21 21 20 20 19 18 17 17 14 11 9 10 10 11 11
5 1 7 6 5 7 6 5 8 7 6 5 4 3 1 2 4 6 4 5 4 1 3 4 4 8 9 9 10 8 6 7 6 7 7 7 5 5 7 8 7 5 4 5 7 12 17 19 20 21 22 23 21 18 17 15 13 11 7 4 5 9 12 13 14 16 18 19 19 20 20 20 21 20 19 19 19 18 18 17 13 10 8 8 9 10
1 5 5 4 7 9 6 5 8 7 5 4 4 4 2 3 1 2 4 5 4 2 1 3 4 7 7 7 8 7 6 5 6 6 6 5 6 7 7 7 8 8 8 7 7 9 14 16 17 20 23 23 21 17 16 15 13 10 5 4 5 8 11 12 14 17 18 19 19 19 20 19 19 19 18 19 20 19 18 17 14 11 9 9 9 9
4 6 2 5 5 8 7 3 5 6 2 2 2 5 3 3 4 3 3 4 4 4 3 4 5 6 4 5 6 5 3 4 5 5 4 3 4 4 4 5 8 9 9 10 9 8 10 13 18 22 23 21 19 17 15 14 12 8 6 4 6 9 11 12 14 16 18 19 20 20 20 20 19 17 16 18 20 19 17 17 15 14 12 11 10 9
5 5 5 7 3 6 7 2 3 6 1 4 3 7 7 5 5 2 3 5 5 5 4 4 4 5 5 4 6 4 4 6 5 5 5 4 2 3 4 6 7 7 7 7 7 8 10 14 18 20 22 21 20 17 14 13 11 8 7 5 7 10 12 13 15 16 17 17 18 19 20 20 20 19 17 15 16 18 18 18 18 17 16 14 12 10
2 1 4 6 5 5 6 2 5 6 5 2 5 8 7 6 5 4 3 2 2 3 4 3 3 4 6 5 6 5 6 8 6 4 4 4 3 4 5 6 7 7 7 5 5 6 9 13 15 18 23 24 20 16 14 14 12 9 7 6 8 11 12 14 16 16 16 15 15 17 18 19 19 20 22 18 15 17 19 19 19 19 19 18 16 13
2 3 4 5 6 5 4 3 6 7 7 2 4 6 8 7 6 5 5 3 2 3 4 4 4 2 5 6 6 4 5 8 6 5 5 4 4 5 5 6 7 8 8 6 6 6 9 14 17 21 23 21 17 15 15 15 12 10 7 7 9 11 13 14 15 16 16 14 13 15 16 18 18 20 24 24 20 18 18 18 20 20 21 20 19 16
2 4 4 5 5 3 5 5 7 10 4 5 4 7 7 6 6 5 6 3 0 1 4 5 2 2 5 6 5 4 3 6 6 6 6 5 5 5 6 7 7 8 6 5 6 7 10 16 19 20 16 14 15 15 15 15 13 10 8 7 9 12 13 14 15 16 15 13 12 13 15 18 20 22 24 25 24 20 18 19 20 20 21 21 20 18
3 6 8 8 5 6 7 5 9 11 4 4 5 6 5 5 5 4 4 3 3 3 4 6 3 2 4 6 5 2 1 4 5 7 6 6 6 6 6 7 7 6 5 5 6 8 14 17 16 14 13 14 15 15 16 16 14 11 9 7 9 11 12 13 14 15 15 13 12 14 16 19 22 24 25 25 25 23 19 18 18 19 21 22 21 20
3 2 4 5 5 6 5 2 5 7 5 5 6 6 6 5 5 4 2 3 4 2 6 6 5 3 2 5 4 2 3 4 4 5 7 5 5 6 7 7 6 6 6 6 6 10 15 16 13 13 15 17 16 15 17 17 15 12 9 8 10 12 11 12 14 15 16 15 15 16 17 19 22 23 24 24 24 24 22 20 18 18 19 20 21 21
5 0 2 3 4 5 6 4 1 1 4 6 4 5 3 3 4 4 4 4 3 3 6 4 4 3 1 5 5 4 5 5 5 5 7 7 6 7 7 6 6 6 6 6 6 8 11 11 12 15 18 19 18 18 19 18 16 13 9 8 10 12 11 13 14 15 16 16 16 17 18 19 20 21 22 23 23 23 22 21 19 17 17 17 18 20
3 4 3 4 1 6 6 3 3 3 3 4 4 5 2 2 3 3 3 1 2 5 4 2 2 2 4 7 7 6 9 8 7 7 7 7 7 7 6 6 6 5 5 6 6 7 7 7 11 16 19 20 20 21 21 19 17 13 10 9 11 13 12 13 15 15 16 17 17 17 17 18 18 18 19 21 22 22 21 20 20 19 17 16 17 18
3 5 3 1 2 4 8 6 2 2 3 4 5 5 3 2 1 2 4 1 3 5 3 2 2 2 4 6 7 9 9 8 6 7 8 7 7 7 6 5 4 5 6 6 6 6 6 8 13 17 19 20 21 22 22 20 17 15 12 11 13 14 13 14 14 15 16 17 17 17 17 18 18 18 18 18 19 21 21 21 22 22 20 19 19 19
2 6 3 6 4 5 9 9 7 6 5 5 5 5 4 4 4 3 3 3 4 4 3 3 2 3 2 4 7 8 8 6 4 5 5 5 6 5 5 5 5 5 6 5 6 7 8 12 15 16 17 19 22 22 22 21 19 16 14 13 14 15 15 14 14 15 16 17 17 17 18 18 18 19 19 18 18 19 21 22 23 24 24 23 23 22
2 6 7 4 2 8 10 7 6 7 3 2 3 5 3 5 5 2 2 5 3 1 2 2 3 4 4 5 5 4 4 3 3 2 1 1 3 3 4 6 5 6 6 5 6 7 10 13 15 16 19 21 22 22 22 22 20 17 16 15 14 15 15 13 14 14 15 16 17 17 17 18 18 19 19 19 19 20 21 23 25 28 28 27 27 25
2 6 6 3 1 7 9 6 5 4 3 2 3 4 4 4 7 4 1 1 4 1 4 1 3 5 4 4 5 3 1 1 2 2 1 2 3 2 4 6 5 6 6 6 6 8 9 12 15 18 22 23 23 23 25 25 21 18 17 16 15 17 15 13 13 13 14 15 16 16 16 17 18 19 20 21 22 22 22 23 24 27 28 27 27 25
4 5 6 2 4 7 4 6 2 0 5 5 4 5 3 2 4 4 1 2 4 2 5 1 4 5 2 3 6 5 2 5 4 3 2 4 3 3 6 6 6 7 6 6 7 8 9 12 15 20 22 24 25 24 26 25 21 18 18 17 17 17 15 13 13 13 14 14 15 16 16 17 18 20 21 23 24 24 23 23 23 24 25 26 25 25
4 4 8 4 6 4 2 6 1 3 3 4 5 5 4 3 2 2 3 2 1 3 4 3 4 4 2 4 4 3 6 7 7 4 3 5 5 5 6 7 8 7 6 7 8 8 9 12 17 21 22 24 24 24 26 23 20 20 19 18 18 18 15 14 14 13 14 14 15 16 17 18 19 20 22 24 25 26 25 24 24 24 25 26 24 24
2 3 6 4 3 1 2 3 4 3 2 4 3 3 2 3 4 3 2 3 3 3 2 4 3 3 5 6 6 8 10 9 8 5 4 6 7 6 7 7 7 7 6 7 7 8 9 12 19 22 22 23 23 24 24 22 22 23 21 19 18 17 15 15 15 14 15 15 15 17 18 19 20 21 23 24 26 27 26 25 24 24 25 25 24 23
0 3 5 5 4 1 1 3 7 8 5 3 3 4 2 1 2 2 1 2 4 3 3 2 4 5 6 5 8 9 9 9 9 7 6 7 8 8 8 8 7 6 7 7 7 8 8 13 20 22 22 22 21 21 23 23 24 24 22 20 19 17 16 16 15 15 15 15 16 18 19 21 22 23 24 25 26 27 27 27 25 24 25 24 24 24
1 3 4 4 2 3 6 7 7 9 9 7 7 7 7 5 4 2 3 1 2 3 4 4 3 7 6 4 7 8 8 9 9 8 8 8 9 9 8 8 7 6 7 8 8 8 8 11 17 18 18 19 19 21 23 24 25 24 22 20 19 17 17 17 16 16 16 16 17 20 21 22 23 24 25 26 26 27 27 27 26 25 25 25 25 25
1 2 3 5 5 6 9 7 4 6 6 5 5 5 5 5 6 5 5 4 2 1 2 3 1 6 6 5 8 8 6 7 7 8 9 9 9 9 7 7 6 7 7 7 7 7 8 11 14 14 15 17 20 22 23 23 23 23 21 20 18 18 17 16 16 17 17 18 19 21 22 23 24 25 26 26 26 27 27 27 27 26 25 26 25 25
2 1 2 4 4 4 6 5 2 2 4 4 4 4 4 5 5 5 5 4 4 3 3 2 2 7 6 4 6 6 3 3 5 7 8 8 7 6 7 7 6 6 6 7 7 7 8 11 12 12 14 17 19 21 22 22 21 20 19 19 18 18 17 16 16 18 19 19 20 21 22 23 24 26 27 27 27 27 27 27 28 27 26 26 27 26
3 2 2 4 4 6 5 3 3 3 0 3 4 3 5 7 5 3 2 3 2 5 6 4 4 7 5 3 3 5 4 5 7 6 6 7 7 6 7 6 5 6 6 7 8 7 8 8 8 10 13 16 17 19 20 20 19 18 18 18 18 17 16 16 17 18 19 19 20 22 23 24 25 26 26 26 27 28 28 28 28 27 27 27 28 28
2 3 3 3 4 5 4 4 4 4 3 3 2 3 6 8 8 5 2 3 5 5 6 6 7 7 5 5 5 5 5 6 9 6 5 6 7 8 6 5 5 5 6 7 8 7 7 7 6 9 13 15 16 17 17 18 17 17 17 17 17 16 15 16 17 18 18 19 20 22 24 25 25 25 26 27 27 28 29 28 28 28 28 28 29 29
2 3 6 7 7 7 7 7 4 1 2 5 6 6 6 7 10 8 3 4 5 3 4 8 9 7 8 5 5 7 6 7 9 7 5 6 8 8 6 5 5 5 6 6 7 7 7 7 7 9 12 15 15 16 16 16 16 15 15 16 15 14 15 16 17 17 18 19 21 23 25 25 25 25 26 27 28 29 29 29 29 30 30 30 30 30
1 3 7 10 11 11 11 11 7 2 5 8 8 9 9 8 10 10 7 8 6 5 6 8 7 7 9 6 6 9 7 8 9 8 7 7 7 7 5 5 5 5 5 6 6 7 7 7 7 8 11 14 15 15 15 14 14 12 13 15 14 13 15 15 15 16 18 20 22 24 25 26 26 26 27 28 29 30 31 31 31 31 31 32 31 31
2 3 6 6 9 11 12 13 10 5 5 6 7 11 13 11 11 13 14 12 10 8 10 7 10 10 9 6 8 10 9 9 9 7 6 5 5 5 4 3 4 5 5 6 6 7 6 8 8 7 10 12 12 13 13 12 12 12 14 15 14 14 15 14 15 17 19 21 23 25 25 26 27 27 27 28 30 32 33 32 32 32 32 33 33 32
2 3 3 2 6 9 9 11 11 9 8 8 9 9 9 9 12 15 15 12 11 10 8 7 10 11 7 7 10 10 7 6 5 3 3 3 5 4 3 2 3 5 6 6 7 7 6 7 8 8 10 11 12 12 12 11 12 13 15 14 13 14 15 14 15 17 19 22 24 25 25 26 28 27 27 29 31 33 33 32 32 33 33 33 34 33
1 3 1 1 3 8 9 9 9 9 9 11 12 10 8 10 10 11 9 4 5 7 5 5 6 9 6 7 8 8 5 3 3 5 5 6 6 4 4 3 4 5 5 6 6 7 6 7 8 8 10 12 12 12 12 12 14 15 14 13 13 14 13 13 15 18 21 24 25 25 25 26 27 27 27 30 32 32 33 33 33 33 33 34 34 34
3 3 2 0 3 7 6 4 5 6 6 8 11 13 14 13 9 6 5 3 6 6 5 4 5 7 6 4 5 7 5 4 6 7 6 5 4 4 5 4 5 5 5 6 6 6 7 8 7 8 10 12 12 13 14 15 15 14 13 13 13 13 12 13 15 19 22 24 24 24 25 26 26 27 28 31 32 32 33 33 33 33 34 33 33 33
4 5 4 2 4 8 5 2 1 4 5 7 9 12 15 14 8 6 6 6 5 5 5 5 6 6 4 3 4 5 4 5 7 6 5 4 4 5 5 5 5 5 5 6 6 7 7 8 8 10 12 13 14 15 16 16 15 13 11 11 11 11 11 13 16 20 22 22 23 24 25 25 26 28 30 31 32 32 33 33 33 33 33 33 32 31
4 6 5 3 3 9 8 2 1 3 5 7 5 6 10 12 13 13 12 9 7 5 5 4 5 4 2 4 6 7 6 5 5 5 5 4 5 5 5 5 5 5 6 6 6 7 7 8 10 13 14 14 15 15 16 15 12 10 10 10 11 10 11 13 17 19 20 21 22 24 24 25 27 30 31 31 32 32 32 33 33 33 33 32 31 30
5 6 4 3 3 6 4 1 1 6 6 5 5 4 6 9 12 15 15 13 12 10 8 7 8 7 6 7 7 6 6 4 4 5 5 5 6 6 4 4 5 5 5 7 6 7 8 8 11 14 14 14 14 15 16 13 10 10 10 10 10 10 10 13 16 17 19 20 21 22 23 26 28 30 31 31 31 31 31 32 33 33 32 31 30 29
7 5 2 2 3 2 1 2 4 5 4 5 9 6 2 3 5 6 9 12 12 12 11 11 13 10 7 7 5 4 4 3 2 3 5 5 5 5 5 5 5 5 6 7 7 8 12 13 14 15 15 14 13 16 15 11 9 10 10 10 10 9 10 12 15 16 18 19 20 21 23 26 29 30 31 31 30 30 30 31 32 32 32 30 30 29
7 5 3 2 3 2 3 5 3 4 6 9 10 6 4 5 6 6 6 9 10 10 11 10 9 7 5 5 4 3 3 2 2 3 5 5 5 5 5 5 5 5 7 9 11 14 18 19 17 15 14 13 14 15 13 10 9 10 10 10 9 8 9 11 13 15 16 17 19 21 23 26 29 31 31 30 29 30 31 32 33 32 31 29 29 30
5 5 4 3 3 3 4 5 2 3 7 8 8 6 6 8 7 6 5 7 6 7 10 9 9 7 6 6 5 3 4 3 1 5 5 4 5 4 4 5 6 7 9 12 14 18 20 20 16 13 13 13 14 13 10 9 9 10 11 11 8 7 9 10 11 13 15 16 18 20 23 26 29 30 31 29 29 30 32 33 33 31 30 29 30 32
3 2 1 3 3 3 3 3 3 4 7 6 6 7 6 4 2 4 2 6 6 7 9 8 9 9 8 8 6 5 5 3 4 6 4 4 5 4 3 4 5 7 11 13 14 17 20 19 14 11 12 14 15 12 10 9 10 11 12 11 7 7 9 10 10 12 13 14 17 19 23 26 29 30 29 29 29 30 32 33 32 30 29 30 30 31
4 3 1 3 5 3 4 3 2 4 5 4 5 8 8 3 3 5 3 7 6 5 8 9 9 9 8 7 6 6 5 5 5 5 5 4 3 3 4 4 6 8 11 15 15 16 17 15 11 12 15 17 16 12 10 10 10 12 12 10 7 7 8 9 10 11 12 13 16 19 22 26 29 30 28 28 29 30 32 33 32 30 29 28 27 26
5 2 2 3 5 5 5 4 3 4 5 4 7 9 7 0 4 3 5 7 6 4 5 7 9 9 8 7 6 4 5 6 4 3 3 2 1 3 5 7 9 10 11 14 15 16 14 12 12 15 17 17 14 11 10 10 11 12 12 9 8 8 8 8 11 12 12 14 16 17 20 25 28 29 27 28 29 30 31 32 31 28 26 26 26 18
3 2 2 2 3 3 4 3 3 4 3 3 7 9 4 2 3 4 5 6 5 4 4 4 7 8 7 8 7 5 5 5 4 2 1 3 3 4 5 6 8 9 10 11 13 13 12 11 12 16 17 14 12 11 10 10 11 12 11 10 10 8 6 8 11 12 13 15 15 15 18 23 26 28 28 29 32 31 32 33 31 27 26 29 29 22
2 2 2 2 2 2 1 2 2 3 3 5 7 6 2 3 5 4 4 6 5 2 3 5 5 7 7 7 6 5 3 3 3 2 1 3 4 4 5 6 7 8 10 11 12 13 11 11 13 16 16 13 11 10 10 11 12 12 11 11 10 6 5 9 11 12 14 15 13 12 16 20 24 27 28 31 35 33 32 33 30 26 27 31 31 25
2 3 2 2 1 0 1 2 3 4 4 3 2 2 3 3 3 4 4 6 6 2 1 4 3 5 7 7 6 5 4 3 2 1 1 3 4 4 5 6 7 9 11 12 13 12 11 12 14 16 15 12 10 10 11 12 13 13 11 11 9 5 5 9 10 11 14 13 10 10 13 17 21 25 28 31 35 35 33 33 31 26 26 29 30 25
3 3 2 2 2 1 3 5 5 4 5 4 3 4 6 4 4 5 4 5 6 3 1 2 4 5 6 5 6 5 4 4 3 2 2 3 4 4 5 6 8 9 12 13 13 13 12 13 15 16 15 12 11 11 12 12 14 13 11 10 7 4 6 7 8 11 14 12 9 8 11 15 19 23 27 30 33 33 32 31 30 28 25 25 27 25
3 2 2 2 2 2 3 6 6 5 6 5 4 5 6 4 4 5 5 5 5 3 1 3 5 5 6 6 5 4 4 5 4 2 3 3 4 5 5 6 8 10 12 13 14 15 13 11 13 16 15 12 11 12 12 13 15 14 10 8 6 5 6 7 8 11 13 13 9 8 10 13 16 21 25 28 30 31 32 30 28 28 26 23 22 23
2 1 1 2 1 1 2 4 5 5 6 6 5 5 6 5 4 4 4 4 4 4 4 4 4 4 5 6 6 5 5 5 3 1 4 4 4 5 5 5 8 11 12 13 15 16 14 11 12 14 14 13 13 13 13 14 16 14 10 8 7 6 7 7 8 10 12 13 11 10 10 11 13 17 22 26 27 29 32 32 28 27 28 27 22 19
1 2 1 4 3 2 4 5 4 5 7 6 5 5 4 5 4 3 4 4 4 5 5 2 1 3 5 5 5 6 5 4 2 1 4 4 4 5 5 5 8 11 13 15 16 14 12 13 14 13 13 14 14 13 14 15 15 13 10 7 8 8 8 8 9 10 11 13 13 12 12 12 12 13 17 22 25 26 30 33 31 28 29 29 25 20
2 2 2 2 2 3 6 5 4 4 6 5 5 5 6 6 4 4 6 6 5 6 6 4 2 3 5 6 5 6 5 2 3 3 3 5 4 4 6 8 10 12 13 15 15 12 12 15 15 12 12 13 12 11 14 16 15 13 9 7 7 8 8 9 9 10 10 12 13 13 14 13 12 11 13 17 22 24 26 30 31 29 29 30 29 25
3 4 3 1 2 4 4 3 2 2 4 5 4 5 8 7 4 5 6 7 5 6 6 5 3 2 4 5 5 7 6 1 2 2 3 4 4 5 7 9 12 13 13 14 13 11 12 15 13 12 13 13 10 9 12 15 16 13 9 6 7 8 9 10 9 10 10 11 12 13 14 14 13 11 10 12 18 22 23 26 30 31 30 30 30 30
5 6 5 4 3 4 5 6 4 3 4 6 3 3 7 7 4 4 5 6 4 3 5 6 3 4 4 2 3 6 6 3 1 1 3 4 5 7 8 8 10 13 14 13 12 11 12 12 11 12 13 12 10 9 11 14 16 13 9 6 6 7 9 10 10 10 11 11 11 12 14 14 13 12 10 9 12 18 21 23 26 30 31 31 31 33
Wind_Direction
69 73 37 190 207 217 194 164 146 141 123 121 113 110 148 183 269 268 261 291 344 86 261 214 222 263 268 269 268 283 350 300 274 275 269 260 222 200 210 218 217 219 227 226 219 214 209 206 205 206 212 219 224 227 226 225 230 236 249 275 312 326 331 334 331 327 326 328 329 328 325 319 311 304 300 298 296 299 303 302 291 277 270 271 277 271
61 84 236 222 207 183 156 134 114 96 80 89 104 96 58 188 246 265 260 303 352 55 282 354 322 274 262 266 270 289 319 290 265 253 257 255 235 203 202 215 215 219 236 218 214 212 208 208 207 208 214 221 225 227 226 225 229 237 247 276 320 326 330 335 332 327 325 324 324 321 318 316 311 306 303 302 301 302 302 306 310 300 288 278 278 282
32 271 247 224 167 113 85 78 86 83 81 78 91 100 338 259 260 285 297 325 6 47 284 351 343 280 273 274 276 284 273 261 255 235 244 256 241 211 204 211 205 203 213 206 208 207 206 208 209 213 219 222 227 228 227 226 228 235 245 281 323 325 325 331 331 328 326 322 319 314 311 310 307 304 302 300 299 300 301 304 313 316 316 307 291 289
42 262 254 194 145 109 73 51 76 79 74 78 107 120 249 270 274 297 310 329 0 38 311 359 335 285 290 300 289 275 242 249 280 263 257 254 234 220 208 202 189 187 199 203 208 205 205 210 213 218 221 223 227 227 224 223 226 232 246 282 322 328 324 326 330 329 326 321 316 311 307 303 300 299 298 296 294 298 304 307 312 317 321 322 311 300
230 245 158 115 122 108 98 71 88 98 43 336 166 150 188 232 207 214 303 334 354 10 22 32 346 299 312 334 300 283 239 260 302 326 322 287 240 223 197 199 196 192 196 194 199 204 204 212 217 220 222 225 228 226 221 220 223 232 249 283 325 329 324 325 327 328 326 321 316 313 311 307 305 304 297 294 296 301 310 313 313 317 319 320 314 302
262 249 132 117 97 93 109 150 175 143 124 311 244 197 188 178 185 198 13 25 29 350 330 44 14 297 312 315 280 306 338 301 325 6 350 337 290 199 183 200 206 213 219 205 200 199 203 214 220 224 226 227 229 225 217 215 219 231 252 291 323 323 323 324 325 328 326 321 316 312 310 310 310 308 301 298 304 308 312 314 313 313 316 317 315 304
254 334 99 128 130 102 99 198 229 153 117 314 248 202 178 137 133 131 104 81 46 291 287 73 114 267 309 299 270 310 328 310 330 351 321 313 258 212 209 208 202 215 225 226 224 207 209 217 222 229 229 227 229 225 215 215 220 232 257 294 312 317 321 322 325 327 323 317 311 305 299 299 299 297 297 300 305 308 309 308 308 310 312 313 312 309
169 67 58 100 112 114 127 227 225 147 123 250 238 160 143 138 153 155 135 144 214 253 313 21 118 214 294 275 270 306 310 311 327 315 297 283 241 229 235 226 215 218 213 212 217 211 219 220 222 227 229 230 232 226 218 218 225 237 258 289 305 314 317 319 324 323 318 311 305 302 296 292 290 288 291 297 302 303 302 299 300 304 306 308 309 308
175 150 164 141 114 148 194 214 186 150 144 244 196 136 141 148 156 149 125 125 80 27 315 309 121 158 269 275 306 332 308 313 314 290 284 277 256 237 233 232 228 231 232 230 221 220 228 225 226 232 235 239 237 229 222 221 229 240 255 283 302 310 314 318 322 317 313 307 298 295 294 291 291 290 291 296 300 300 299 298 299 299 298 300 302 303
222 198 186 150 140 198 218 212 172 162 185 211 142 98 81 83 84 92 111 124 58 37 265 253 173 170 268 283 311 352 289 279 280 283 280 263 256 243 233 232 231 241 257 252 237 235 238 234 236 243 246 245 242 234 225 223 231 240 253 281 299 304 309 314 314 310 308 303 293 288 287 288 290 292 294 297 298 298 299 299 299 300 298 296 295 296
272 244 166 151 176 194 183 152 170 170 149 131 111 73 54 40 37 46 66 92 66 332 259 238 189 172 286 284 262 217 209 211 216 280 286 271 263 245 237 236 233 239 244 244 244 243 245 246 247 249 249 247 244 237 226 223 230 239 253 279 293 297 304 308 304 303 305 301 293 287 285 285 286 290 293 295 295 296 297 298 297 298 298 298 294 292
330 55 178 225 198 143 108 85 58 125 111 104 93 87 75 357 13 23 358 48 81 268 268 247 184 150 216 261 247 240 255 231 199 239 265 271 266 242 235 239 232 233 238 241 247 249 251 252 247 242 243 244 241 234 226 224 229 237 251 271 285 292 301 302 296 298 302 301 295 290 286 284 284 286 288 289 289 291 293 295 296 296 296 298 297 293
320 213 246 301 213 144 127 94 37 23 74 90 93 101 111 315 8 1 310 29 185 246 254 204 183 178 228 246 251 259 268 250 217 221 237 249 251 242 241 242 234 234 243 242 243 249 251 248 242 237 237 237 233 230 225 223 229 237 247 262 276 287 296 296 294 297 299 298 297 294 288 285 283 283 283 284 285 285 288 290 291 293 292 292 293 293
315 294 293 312 269 171 148 154 177 203 173 151 145 137 147 144 66 286 268 262 253 261 252 215 229 268 279 265 231 228 251 252 230 226 231 234 235 243 256 261 259 245 237 237 238 244 242 240 240 237 236 235 231 228 223 222 229 235 245 257 267 280 289 291 293 296 296 297 299 297 291 288 285 283 282 280 281 282 283 285 286 288 288 287 288 288
264 300 229 181 226 191 175 187 178 151 159 177 155 134 151 160 166 224 227 207 243 267 275 283 257 193 226 255 212 214 255 275 262 237 225 233 243 264 292 292 287 263 244 239 238 243 245 243 244 244 242 238 233 229 223 223 229 232 243 254 261 276 285 290 295 295 296 299 301 299 295 292 290 288 285 280 280 281 282 283 283 282 282 283 283 283
201 262 243 232 204 170 185 196 145 118 133 213 124 115 179 185 161 170 181 178 180 238 266 272 242 212 217 260 252 241 255 278 334 333 116 247 271 324 312 280 276 273 265 254 243 250 252 248 248 246 244 241 236 231 225 225 228 231 243 252 261 274 281 290 297 297 300 304 304 303 299 297 296 294 291 286 283 284 284 284 282 281 280 280 281 281
189 259 272 307 266 190 192 176 149 158 176 174 134 171 214 164 127 127 211 57 76 151 251 249 247 283 323 296 307 352 202 205 357 8 29 307 307 335 275 253 258 258 256 253 244 248 253 252 249 244 242 240 235 230 227 227 228 232 244 252 260 270 278 289 298 300 304 305 306 307 305 304 303 300 298 295 293 292 290 288 284 283 283 281 280 279
186 259 282 225 221 243 192 129 93 277 134 135 186 199 186 112 100 109 149 11 46 214 266 276 223 269 334 280 313 346 240 229 244 229 278 295 288 277 257 246 249 243 246 258 251 252 256 254 251 246 243 240 235 232 230 229 229 234 245 252 259 269 278 291 299 302 304 304 307 309 308 309 308 307 305 302 301 299 294 290 285 283 283 282 280 277
174 253 283 227 209 261 77 110 61 337 90 130 188 173 128 138 182 106 136 172 185 223 283 301 244 239 207 219 273 266 219 225 236 229 253 255 230 237 248 248 253 249 250 257 251 252 252 247 247 245 243 241 237 234 233 231 231 236 243 249 258 268 280 292 298 302 304 305 308 307 307 308 308 308 308 305 304 301 296 291 287 285 284 283 282 277
162 231 277 282 233 240 52 115 186 252 359 59 128 148 118 156 172 160 152 164 177 200 258 298 293 242 222 213 200 210 216 217 220 222 231 232 222 223 229 235 247 247 246 249 246 248 247 246 247 244 243 242 238 236 234 230 231 236 242 247 255 267 279 289 295 301 305 307 309 309 307 307 307 308 307 306 304 301 297 294 290 288 286 284 283 279
111 226 250 291 304 176 177 206 191 192 178 127 157 179 181 144 131 171 204 133 141 165 186 245 280 257 241 210 188 205 219 208 201 206 221 228 226 225 224 226 234 241 247 249 247 249 249 249 250 247 244 242 240 238 234 230 232 236 240 246 254 266 277 286 294 301 306 307 308 308 306 306 308 309 308 306 305 301 298 296 293 290 288 285 281 279
210 208 218 255 272 208 227 235 206 194 190 180 188 193 188 175 140 177 245 239 129 161 174 178 247 261 248 197 191 207 212 203 197 197 212 226 226 227 227 225 228 236 246 249 250 254 255 254 256 256 251 244 239 237 233 230 233 236 240 246 255 266 276 286 295 302 306 307 306 306 305 305 308 309 309 307 305 302 299 297 295 293 289 286 282 279
173 159 221 237 222 226 246 249 212 197 192 173 194 199 181 170 153 166 213 225 173 174 159 136 232 268 257 199 197 212 209 203 199 194 210 229 228 228 235 238 240 240 246 258 263 260 260 263 267 266 257 246 240 237 233 232 233 236 240 247 256 268 278 286 295 302 305 304 303 304 304 304 307 309 308 306 303 302 300 298 297 294 290 287 283 280
5 134 261 277 280 294 290 290 295 186 146 157 210 187 159 194 185 170 187 173 159 187 157 120 257 269 273 222 207 230 235 232 234 209 212 235 244 243 244 246 254 255 261 272 270 265 264 266 268 262 251 244 240 237 233 233 234 236 241 250 260 271 281 288 294 301 303 301 301 304 303 303 305 307 306 305 303 302 300 298 297 294 290 287 285 281
308 295 311 314 310 321 329 327 313 311 226 192 224 187 184 197 164 133 147 127 176 214 168 159 244 253 272 300 258 249 243 253 259 228 208 235 253 252 245 244 252 258 270 278 275 273 267 260 259 254 250 247 242 239 236 234 235 237 241 252 264 274 281 287 294 300 301 300 301 303 302 302 303 305 304 303 301 301 300 298 296 293 290 287 284 281
256 269 279 281 263 264 269 245 239 262 267 251 251 217 201 188 171 176 166 153 219 225 164 188 243 253 280 322 314 261 235 249 260 243 216 235 247 251 253 255 256 253 263 276 282 283 276 267 258 252 252 251 246 242 239 236 237 238 243 255 267 275 280 285 294 300 300 300 301 301 300 300 301 303 303 301 300 299 299 297 294 291 288 285 282 279
182 220 221 232 238 240 244 248 249 235 252 260 254 232 211 194 192 188 147 174 203 173 177 219 231 248 266 277 277 261 242 245 254 245 239 244 246 251 253 251 256 258 266 276 282 284 281 274 264 257 255 252 249 246 242 239 238 238 247 260 268 274 278 285 295 299 299 300 300 298 298 300 301 303 301 300 299 298 297 295 292 289 286 283 279 276
115 255 246 243 247 252 254 261 276 281 243 260 271 259 243 216 194 185 197 207 164 138 234 227 189 225 245 223 232 253 246 246 250 241 237 240 242 243 240 247 267 277 281 280 273 270 271 270 266 260 255 251 249 247 242 240 239 239 251 263 269 272 276 286 294 296 299 301 299 297 299 301 303 303 301 300 300 298 295 293 290 287 285 282 278 274
120 254 271 268 270 275 275 278 287 286 250 260 273 267 258 235 200 195 215 210 162 180 235 204 170 213 229 197 221 238 233 237 244 237 230 232 236 228 216 241 285 289 287 283 274 266 262 266 267 262 259 255 249 246 240 235 235 240 251 260 268 273 278 287 293 295 300 301 299 299 302 304 305 303 301 301 300 298 294 292 289 287 284 281 277 274
120 262 263 270 287 288 286 284 284 281 277 274 274 279 281 257 217 208 220 209 183 207 223 163 183 228 224 193 219 234 231 235 250 265 246 220 219 202 169 196 265 271 273 273 275 274 265 264 268 271 270 260 246 239 233 227 229 238 249 259 268 275 280 288 292 295 300 301 301 302 305 306 305 302 300 301 300 297 294 292 290 288 284 280 276 273
187 267 266 117 294 287 279 276 277 280 280 277 276 280 284 277 254 238 241 205 179 230 235 162 212 255 244 205 227 254 260 245 255 258 237 220 209 168 148 209 248 260 273 277 277 279 274 269 269 269 265 256 246 236 225 224 230 238 249 262 270 276 285 291 293 297 301 302 304 307 308 307 304 301 301 302 300 296 295 294 292 290 286 281 277 273
188 246 287 61 289 281 262 255 286 303 298 280 274 265 257 258 258 252 251 205 184 210 219 205 237 261 256 220 234 260 252 226 240 237 220 218 205 158 164 210 238 252 265 276 281 281 277 271 265 260 257 253 244 231 221 223 231 240 253 266 274 281 287 290 295 301 303 306 310 312 310 307 305 303 303 302 300 298 297 296 294 291 288 283 279 275
208 255 272 247 281 284 258 199 305 324 306 280 264 249 245 244 238 244 259 251 227 186 175 209 237 250 245 184 204 240 226 217 233 220 201 204 191 181 193 208 230 251 260 270 277 278 273 267 261 257 255 252 241 228 222 225 233 246 262 272 278 281 283 292 302 305 307 312 317 316 313 309 308 307 305 303 302 300 299 297 295 293 291 287 284 278
207 240 252 216 257 275 264 216 36 310 270 265 254 221 221 225 226 235 239 232 226 210 198 232 268 269 215 178 201 215 202 204 217 204 198 187 165 179 212 223 236 256 270 276 276 275 272 268 268 263 256 252 244 230 225 228 238 255 266 271 274 277 286 299 307 310 315 322 322 318 315 313 312 309 306 305 304 301 300 298 296 296 294 291 287 281
230 229 238 214 232 272 282 109 253 259 243 256 283 247 217 223 226 233 238 232 227 226 226 243 257 244 216 209 216 206 197 215 224 204 199 184 159 158 184 227 249 254 268 280 281 282 283 277 271 264 256 251 241 226 224 231 242 255 263 267 271 276 291 304 310 317 324 326 323 319 319 319 318 313 310 308 306 303 301 300 299 298 296 294 288 282
239 228 216 213 224 280 323 183 226 268 283 285 282 268 220 232 223 226 252 253 238 223 217 227 237 231 213 216 222 202 201 223 239 216 212 197 175 162 172 216 246 245 253 267 270 277 286 286 278 267 259 252 234 221 226 236 243 252 261 264 268 277 296 310 316 322 327 327 323 322 325 327 323 318 314 312 308 306 304 303 302 300 298 294 288 282
223 214 204 233 224 231 257 238 246 311 302 276 267 247 194 202 194 179 219 250 239 213 201 206 217 213 187 180 183 184 178 111 32 276 249 219 199 197 202 221 241 247 259 272 278 283 288 290 287 274 260 246 227 223 229 238 244 253 260 262 265 281 303 315 319 324 330 329 325 328 335 335 328 323 320 316 312 310 310 310 307 302 298 293 287 284
206 201 193 219 213 197 248 265 281 281 266 259 256 247 225 218 204 172 197 256 259 211 192 185 180 174 156 145 150 149 126 109 275 269 259 230 210 218 239 249 251 258 272 283 290 295 297 297 292 274 251 233 224 226 232 238 245 252 257 260 266 286 308 318 321 326 331 329 327 335 343 340 333 328 324 319 317 316 316 315 311 304 299 296 290 284
327 306 237 236 236 187 198 238 241 240 252 264 271 281 287 259 196 121 182 263 260 204 187 177 166 164 155 151 153 130 114 146 243 263 255 226 216 217 240 273 285 283 287 293 297 300 301 300 291 266 239 228 226 228 231 239 246 249 254 259 266 287 309 316 316 321 328 329 333 344 349 344 337 332 328 324 322 322 322 321 317 312 308 303 294 283
320 309 185 227 242 216 195 219 240 239 257 297 320 313 311 300 110 105 198 258 270 215 186 170 161 165 161 151 141 127 137 179 222 244 234 219 231 237 229 253 278 282 290 300 307 309 306 295 271 240 224 224 227 228 231 240 243 246 254 259 264 286 308 313 309 313 319 327 339 350 352 347 341 336 333 330 327 327 329 329 328 323 318 315 309 293
296 269 184 211 234 224 206 218 264 257 255 310 328 304 291 295 98 132 212 252 299 292 218 172 156 159 155 145 144 162 193 204 200 199 191 166 235 270 252 253 266 274 283 295 308 315 309 288 258 238 228 225 226 227 232 237 238 245 253 255 264 288 309 309 305 308 312 321 335 349 355 351 346 342 340 337 335 335 337 340 339 334 330 336 341 330
290 287 278 253 243 230 195 198 277 274 255 325 326 303 279 167 183 216 235 268 299 304 269 212 158 152 154 156 167 195 215 214 208 205 172 165 203 250 266 268 275 284 289 297 307 310 301 280 257 244 237 231 227 229 234 234 237 244 249 255 273 298 311 304 304 309 312 316 327 346 358 356 353 350 348 347 348 347 346 349 349 347 350 1 7 8
205 220 269 243 225 240 187 174 243 259 277 355 349 326 302 175 216 249 290 301 317 12 277 248 173 152 163 173 190 222 221 196 210 246 262 226 226 245 266 269 273 284 292 299 305 303 289 268 254 246 242 236 229 230 233 233 236 240 247 264 288 309 304 299 306 310 314 319 327 349 1 359 358 357 354 355 358 358 357 356 355 356 5 14 17 15
215 200 231 230 205 207 204 211 220 234 261 314 356 265 248 230 256 280 290 296 314 0 233 255 217 175 177 176 185 214 218 199 203 207 218 245 250 253 270 278 279 287 293 296 304 305 285 260 252 250 247 241 232 229 230 232 235 237 249 276 301 311 292 299 307 309 316 324 330 349 1 2 2 1 360 1 4 5 5 3 1 1 10 20 23 17
219 197 207 227 231 209 218 245 265 269 269 260 217 238 267 273 276 277 259 260 278 268 167 266 257 208 183 169 166 179 201 203 197 189 200 248 267 263 270 279 279 285 292 295 302 304 287 264 256 254 250 241 230 226 228 232 233 234 251 282 306 305 292 300 304 307 316 324 327 340 355 360 3 5 5 6 8 8 8 8 7 5 6 20 29 23
227 202 198 219 247 276 253 253 270 283 278 269 254 262 276 264 242 255 259 251 257 259 232 252 249 216 179 168 161 162 190 188 181 221 250 263 277 272 269 280 287 292 296 299 303 302 295 280 264 255 249 242 231 223 223 229 232 235 252 280 298 301 299 296 294 304 315 320 320 330 345 353 359 5 9 10 10 11 12 13 13 11 8 14 30 33
253 161 249 246 245 319 277 237 236 255 264 271 281 290 294 278 243 238 259 267 274 277 252 231 238 224 188 169 156 157 175 174 160 290 294 281 279 284 286 290 296 299 299 299 300 300 298 287 266 252 246 240 232 221 217 224 233 239 250 271 284 291 297 291 283 294 309 315 316 322 335 346 353 1 9 13 13 14 17 18 18 18 15 12 19 32
240 121 244 247 215 217 249 243 243 262 265 270 282 286 293 296 288 303 326 328 334 317 294 265 215 210 184 157 141 141 148 168 185 278 304 294 287 298 302 295 295 299 300 299 299 298 287 272 260 252 247 243 234 221 214 222 233 238 243 260 278 285 292 291 280 284 302 312 313 316 327 340 348 356 6 15 17 18 21 22 22 23 24 21 20 28
172 157 208 249 256 268 277 286 309 300 281 277 284 287 288 291 307 355 354 343 359 3 343 328 274 210 159 144 142 128 121 173 224 231 285 302 312 312 304 299 299 300 302 303 306 302 281 267 262 257 253 248 237 221 215 221 230 233 235 252 277 286 290 289 281 281 296 308 311 315 325 335 347 357 4 13 20 24 27 30 30 30 33 35 36 39
184 210 212 209 269 264 263 270 276 280 275 276 295 312 304 299 326 9 346 326 348 9 340 307 302 32 94 125 133 117 111 131 230 217 267 298 310 299 297 305 308 309 312 315 315 307 289 277 271 264 259 251 236 220 217 222 227 225 222 242 274 290 291 287 282 282 292 304 312 317 324 334 348 2 6 11 19 24 28 34 38 39 41 44 46 49
206 216 198 178 221 244 237 231 209 189 251 260 257 292 295 297 332 357 316 303 324 340 291 283 313 63 81 95 106 116 128 143 164 209 281 310 315 302 304 314 315 314 320 327 325 315 308 301 282 261 253 243 227 217 216 222 224 216 207 230 275 294 294 288 283 284 292 304 313 320 327 334 347 5 14 17 24 27 27 29 35 41 46 50 52 53
Height
790 790 794 795 794 793 795 799 799 802 804 805 808 809 813 815 812 810 807 807 809 805 804 806 805 803 801 797 791 794 800 799 797 798 795 795 798 800 800 800 800 800 798 797 799 800 801 802 803 803 804 804 805 806 807 808 808 809 809 808 809 809 809 808 807 807 805 805 805 804 803 802 801 802 802 803 804 805 806 807 808 808 808 809 809 809
792 794 796 793 795 798 805 810 804 804 807 806 808 810 815 819 813 808 808 809 810 806 806 811 808 803 801 797 794 797 800 797 794 793 791 789 793 797 797 797 798 798 798 798 799 799 800 801 801 802 803 803 804 805 806 807 808 808 808 808 808 808 808 808 807 807 806 805 805 804 804 802 800 800 799 800 801 802 802 804 805 806 806 807 807 808
794 793 792 797 805 807 811 812 803 804 809 809 814 815 814 819 816 809 809 811 812 807 806 811 810 803 801 801 798 800 800 796 794 793 791 789 790 795 795 795 797 798 798 798 798 798 798 799 800 801 801 802 803 804 805 806 807 807 807 807 807 807 807 807 807 807 806 805 804 803 803 803 801 799 798 798 798 798 799 800 802 804 804 804 805 806
797 793 797 806 806 800 805 810 805 807 811 813 814 812 812 819 817 809 808 812 813 813 811 811 811 805 803 802 796 797 800 796 795 795 795 795 793 791 792 792 795 796 796 796 796 797 797 798 799 799 799 800 801 803 804 805 806 806 807 806 806 806 807 807 807 806 806 805 804 803 802 801 801 799 798 796 795 796 797 798 799 801 802 803 803 804
794 794 806 810 802 796 803 809 807 804 809 816 816 810 809 812 812 811 813 813 811 817 817 811 810 804 801 801 793 793 801 797 796 796 794 795 795 792 792 792 793 793 792 793 794 796 797 798 797 797 798 799 800 801 803 804 805 805 806 805 804 804 805 806 806 805 805 804 803 802 800 799 799 798 798 796 795 794 795 795 796 798 800 801 801 802
792 799 806 802 801 801 801 805 808 805 807 814 813 807 805 804 807 812 815 814 813 816 817 816 817 809 800 799 793 793 796 792 792 793 791 794 795 793 793 792 793 793 791 792 793 795 796 796 796 796 797 797 798 800 802 803 804 804 804 803 802 803 804 804 804 804 804 803 802 801 799 798 797 796 797 797 795 794 793 793 793 794 796 798 799 800
797 804 803 798 801 803 801 804 808 808 810 811 806 805 809 808 808 812 813 815 816 818 820 821 822 817 805 796 793 797 796 788 788 790 790 794 795 793 793 792 792 792 791 793 793 795 795 795 796 795 794 795 796 799 801 802 803 803 803 801 801 802 802 803 803 803 803 802 802 801 800 799 798 796 795 796 796 795 793 792 791 792 793 795 797 797
799 802 803 801 801 804 804 803 805 809 808 806 805 806 809 808 808 811 812 813 817 819 822 822 820 819 813 798 797 804 797 786 785 787 788 792 794 794 793 793 793 791 790 792 793 794 794 793 793 793 792 794 796 798 800 800 801 801 801 800 800 800 801 801 801 801 801 801 801 800 799 798 797 796 794 794 795 794 793 792 790 790 790 791 793 794
798 797 798 799 801 806 801 795 801 806 801 801 807 809 806 806 808 810 810 814 822 822 819 820 819 821 816 801 799 803 795 787 785 784 785 789 792 793 792 792 792 791 792 792 793 793 793 792 791 791 793 794 796 797 798 799 799 800 799 799 799 799 800 800 800 800 800 800 800 799 798 797 795 794 794 793 793 792 792 791 790 789 788 788 789 791
795 791 792 794 796 798 793 793 800 799 797 802 809 810 809 813 815 814 814 815 823 824 816 814 817 819 815 801 796 799 794 790 788 784 783 787 791 791 791 790 790 792 793 793 793 792 791 791 792 793 794 794 794 796 797 797 798 798 798 797 798 798 799 799 799 799 798 798 798 798 797 796 794 793 792 792 791 790 790 790 789 788 787 786 786 787
792 791 792 791 789 788 788 798 805 799 799 805 806 806 810 816 818 819 822 819 823 822 812 813 817 818 816 804 795 794 791 787 786 784 783 784 788 789 788 789 790 791 791 791 791 791 789 790 792 793 792 792 793 794 795 795 796 797 796 796 797 797 797 797 798 798 797 796 796 796 795 794 793 792 792 791 789 788 788 788 787 787 786 785 784 784
795 792 791 786 783 786 789 797 805 804 803 803 802 804 809 815 818 821 823 822 824 819 812 819 823 819 818 804 790 791 792 790 788 785 781 781 784 785 785 787 789 789 789 790 790 789 789 789 790 790 790 790 791 791 792 793 794 795 795 795 795 795 796 797 797 796 795 795 794 794 794 793 792 791 791 790 788 787 787 786 785 785 785 784 783 782
791 788 789 784 781 784 786 793 804 806 804 803 802 806 812 818 823 822 822 826 826 818 816 824 822 817 813 799 789 789 786 786 789 787 782 781 781 781 782 784 787 789 789 789 789 788 788 788 787 787 786 787 788 788 789 791 792 793 793 794 794 794 795 796 795 794 793 793 792 792 792 791 791 790 789 789 787 786 786 785 783 783 782 782 781 781
787 786 788 786 782 779 781 790 798 799 802 803 800 804 811 821 828 827 828 833 828 817 819 826 820 814 807 794 788 786 780 781 787 788 786 784 782 780 781 784 786 789 788 788 787 787 786 785 784 784 783 784 785 785 787 788 790 791 791 792 792 792 794 794 793 793 792 791 791 790 790 790 790 789 788 787 786 785 784 783 782 781 780 779 779 779
793 789 782 781 778 775 777 779 781 787 797 799 796 799 805 809 814 817 819 818 815 814 820 825 817 806 797 787 783 784 783 784 787 788 788 787 786 785 784 784 784 784 784 785 786 785 784 782 781 782 782 782 782 783 785 786 787 788 789 790 791 791 792 792 791 791 790 790 790 789 789 789 788 788 787 786 785 784 783 782 780 779 778 777 776 776
798 788 774 773 773 772 773 772 773 782 794 800 799 798 799 796 796 809 819 817 816 817 817 816 808 798 792 785 784 786 784 782 783 784 783 782 785 786 783 781 781 780 781 783 784 783 781 780 780 780 780 779 780 781 782 783 784 786 787 788 789 790 791 791 790 790 789 789 788 788 788 788 787 786 786 784 783 782 781 780 778 776 775 774 773 773
793 784 773 774 773 770 769 769 772 775 784 798 800 794 795 793 790 804 823 830 827 819 815 814 804 795 794 785 781 783 778 776 780 779 778 779 782 783 780 779 780 780 780 781 782 780 779 778 778 777 777 776 776 777 778 780 782 783 785 786 787 788 789 789 789 789 788 788 787 787 786 786 786 785 784 783 782 781 779 778 776 774 772 771 771 770
784 782 775 773 769 768 769 769 771 772 777 791 793 787 792 797 794 797 810 823 829 821 816 816 804 794 795 787 780 781 777 775 778 777 778 779 779 779 778 777 778 778 779 781 780 779 777 776 776 774 773 773 773 775 776 778 780 782 783 784 786 787 787 788 788 787 787 786 786 785 784 784 784 783 782 781 780 779 777 776 775 773 770 769 768 768
783 783 775 769 767 768 769 770 775 776 775 779 781 780 787 793 796 801 805 808 817 820 815 814 811 803 797 787 778 778 776 774 775 776 778 777 776 776 775 775 775 775 777 778 777 777 775 774 773 771 771 771 772 773 774 777 779 780 781 783 784 785 785 786 786 786 785 785 784 783 782 782 781 781 780 779 778 776 775 774 772 771 769 767 766 765
780 783 776 771 771 772 770 773 778 778 778 780 780 782 784 785 788 795 800 799 802 811 811 808 806 798 788 781 773 769 770 769 770 773 773 772 772 772 772 772 772 772 773 773 773 774 773 771 769 768 769 770 771 772 774 776 777 778 780 782 783 784 784 784 784 784 784 783 782 781 780 780 779 778 778 776 775 774 772 771 770 768 767 765 764 762
779 783 780 775 774 775 772 771 770 770 774 780 781 783 784 786 788 789 794 796 794 799 805 804 798 784 776 777 768 761 763 764 767 768 768 769 769 769 770 769 770 772 772 772 772 772 770 769 767 766 767 768 770 771 773 774 775 776 778 780 781 782 782 782 783 783 782 781 780 779 778 777 776 776 775 773 772 771 769 768 767 765 764 763 761 760
778 781 779 777 776 773 766 762 763 762 764 768 771 775 775 778 785 788 793 796 792 792 797 799 794 776 767 772 766 757 758 759 763 765 764 766 766 766 768 769 771 771 770 770 771 770 769 767 766 766 767 768 769 770 770 771 773 774 777 779 780 780 781 781 781 781 780 779 778 777 776 775 774 773 772 770 769 768 766 765 764 762 761 760 758 757
776 777 777 774 771 768 761 760 764 763 761 764 766 768 770 771 775 779 786 790 790 793 795 797 793 773 762 768 763 755 757 760 763 765 762 762 764 765 767 769 771 771 770 771 770 769 768 767 766 767 766 767 767 767 769 770 771 773 775 777 778 779 779 779 779 779 778 777 776 775 774 773 772 770 769 768 766 764 763 761 760 759 758 756 755 754
777 777 777 775 767 763 761 762 765 763 760 763 764 766 770 769 766 768 774 780 783 787 789 794 793 772 760 767 767 762 765 766 767 768 764 762 764 766 766 767 768 768 769 769 769 768 767 765 766 765 764 764 764 765 767 768 769 772 773 775 776 777 777 777 778 777 776 775 774 773 772 771 769 768 766 765 763 761 760 759 757 756 754 752 751 750
784 780 782 785 780 773 768 766 767 765 762 761 760 763 765 764 765 770 774 779 780 777 778 784 784 768 759 766 768 766 767 764 762 767 768 767 765 764 765 766 768 768 767 767 766 765 764 764 764 763 763 763 762 763 765 766 768 770 772 774 775 775 776 776 776 775 774 773 772 771 770 768 767 765 763 762 760 758 757 755 754 752 750 749 747 746
790 787 786 792 792 786 781 775 769 767 767 764 759 760 762 763 766 767 772 778 776 775 776 774 770 763 760 762 761 760 763 760 757 763 768 769 765 763 765 767 767 767 765 764 763 763 762 762 761 761 761 761 761 762 763 765 767 769 771 773 774 774 774 774 774 773 772 771 770 769 768 766 764 763 761 759 757 755 754 752 750 748 746 745 743 741
787 787 786 788 787 783 779 773 769 770 770 764 758 756 758 763 764 765 772 775 771 774 775 765 759 760 759 759 757 755 758 758 756 759 764 764 762 763 765 766 766 765 764 763 763 763 762 761 760 760 759 759 760 761 762 764 765 767 769 771 772 772 772 772 772 771 771 770 768 767 765 763 762 760 758 756 754 752 750 748 746 744 742 740 739 737
787 788 782 780 779 775 772 769 770 775 773 766 762 759 757 761 764 765 766 762 762 772 771 760 759 761 757 756 755 751 753 755 754 758 760 759 759 762 764 764 763 762 761 762 762 760 760 759 758 758 758 758 759 759 761 763 764 766 768 769 770 771 770 771 770 770 769 768 766 765 763 761 759 757 755 753 751 749 746 744 742 739 737 735 734 732
792 792 783 782 782 776 773 773 773 778 776 769 766 764 760 760 762 760 755 751 754 759 757 753 755 754 752 754 752 747 747 748 748 753 757 758 760 762 762 760 758 758 759 759 758 758 759 758 757 757 757 757 758 759 760 762 763 765 766 767 768 769 769 769 768 768 767 766 764 762 760 759 757 754 752 750 747 745 742 739 737 734 732 730 728 726
794 790 784 787 788 781 778 778 776 777 776 770 767 768 767 767 763 755 749 750 752 749 748 754 754 749 748 751 747 744 747 750 753 756 758 757 758 758 757 755 756 757 757 757 756 757 758 758 757 756 756 756 757 758 759 761 762 764 764 766 767 767 767 767 767 766 765 764 762 760 758 757 754 751 749 746 743 740 737 734 732 729 727 724 722 720
793 789 783 785 788 783 777 775 775 776 776 773 771 770 770 771 768 759 753 754 755 751 751 756 755 749 749 750 748 748 751 754 755 755 754 754 755 754 754 754 755 755 755 756 756 756 756 756 756 755 755 755 755 756 758 759 761 762 763 764 764 765 765 765 765 764 763 761 760 758 757 754 751 749 746 742 739 736 732 729 727 724 721 718 716 714
790 788 783 785 791 784 773 774 776 776 777 777 774 769 765 765 766 763 758 755 751 746 748 753 752 747 745 747 749 749 751 753 752 751 751 752 754 754 753 753 754 755 755 756 755 755 755 754 754 754 753 753 754 755 756 757 758 760 761 762 763 763 764 764 763 762 761 760 758 757 755 752 749 746 742 739 735 732 728 725 721 718 715 712 710 707
784 784 781 785 790 782 772 773 774 774 779 776 763 757 756 759 763 762 757 755 751 746 746 749 747 742 742 744 743 743 747 749 748 749 750 750 753 755 754 754 755 755 755 755 754 754 753 752 752 752 751 751 752 753 754 755 757 758 760 761 761 762 762 762 762 761 760 758 757 755 752 749 746 743 739 736 732 728 724 720 716 713 709 706 703 701
780 780 778 780 785 780 771 770 774 779 780 765 747 744 748 751 756 756 750 748 748 745 743 744 743 740 741 742 739 737 741 744 745 747 749 749 751 753 754 754 754 754 754 753 753 753 752 751 750 749 749 749 750 751 753 754 755 757 758 759 760 760 761 761 760 759 758 757 755 753 750 747 744 739 735 732 728 724 720 716 711 707 703 700 697 694
777 779 778 777 780 778 770 773 781 780 765 748 740 743 747 747 747 747 743 741 741 742 743 743 741 738 738 740 740 739 741 744 746 747 748 749 749 750 751 752 752 752 752 751 751 750 750 749 748 747 747 747 748 750 751 752 754 756 757 758 758 759 759 759 759 758 757 755 753 751 748 744 741 736 732 728 725 721 716 711 706 701 697 694 690 688
774 777 778 777 778 777 774 778 780 766 748 741 740 741 746 748 747 748 746 740 736 738 740 739 736 735 738 742 744 744 745 747 747 747 747 748 749 749 750 750 750 750 750 750 750 748 747 746 746 745 745 745 747 748 749 751 753 755 755 756 757 757 758 757 757 756 755 753 751 748 746 742 738 734 729 725 721 717 712 707 701 696 692 688 684 681
769 772 774 776 777 774 774 774 769 759 751 744 738 736 737 737 737 739 738 731 726 731 735 734 733 735 738 741 744 746 747 746 745 745 746 747 748 749 749 749 749 749 749 748 747 746 744 743 743 743 743 744 745 747 749 751 752 753 754 755 755 756 757 756 755 755 753 752 750 747 744 741 737 732 727 723 719 713 708 703 697 692 688 683 678 675
766 767 768 772 772 772 776 776 771 770 762 744 732 729 729 729 729 730 731 724 719 726 733 729 726 732 737 741 744 745 743 743 743 742 743 745 746 748 748 747 747 747 747 746 745 743 742 741 741 741 742 743 744 746 748 750 751 752 752 753 754 755 755 754 754 753 752 751 748 745 742 740 736 731 726 721 716 710 705 700 694 688 684 679 674 669
768 769 770 773 771 770 776 777 775 770 755 738 732 732 734 736 732 732 737 730 715 720 731 727 723 731 735 737 740 741 740 743 743 741 741 744 745 746 746 746 746 745 744 744 743 742 740 739 739 740 741 742 743 745 747 749 750 751 751 752 753 753 753 753 752 752 751 749 747 744 742 739 735 730 725 719 713 708 703 697 691 685 680 674 669 663
770 772 777 779 775 771 772 773 771 759 745 740 742 741 742 741 736 740 745 733 717 723 730 725 722 730 734 735 738 738 738 741 741 739 741 743 744 745 745 745 745 744 743 742 741 740 739 737 738 738 738 740 741 744 746 748 749 750 750 751 752 752 752 752 751 751 750 748 746 743 741 738 734 729 723 717 712 707 701 695 689 682 677 671 664 657
771 771 775 776 772 771 771 772 768 753 744 748 749 744 742 740 739 745 743 730 727 734 732 725 724 728 732 734 736 734 734 737 738 739 742 743 743 744 744 744 744 743 742 740 739 737 737 736 736 737 737 738 741 743 745 747 747 748 749 750 750 750 750 750 750 750 748 747 745 742 740 738 734 728 722 716 711 705 699 692 686 681 675 668 660 654
775 773 773 770 769 769 768 770 767 754 747 752 750 743 739 736 735 739 738 734 736 736 733 730 728 728 730 731 732 732 733 735 738 739 741 743 743 743 743 743 743 741 740 739 738 736 735 735 735 735 736 738 740 742 744 745 746 747 748 748 748 749 749 749 749 748 747 745 744 741 739 737 733 727 722 716 709 703 696 690 685 680 675 668 661 657
775 774 771 767 767 769 768 768 766 755 749 751 749 742 738 736 737 740 742 739 733 731 734 733 727 727 730 729 731 735 734 735 738 739 740 742 742 742 743 742 741 740 739 738 736 735 734 734 733 734 735 738 739 741 743 744 745 745 747 746 746 747 748 748 748 747 746 744 742 740 738 735 732 727 721 715 708 701 695 690 685 680 676 669 664 662
774 772 770 766 766 769 770 766 759 754 752 753 751 746 741 740 742 743 743 740 733 731 735 732 726 729 731 728 731 736 736 736 738 738 739 741 741 741 742 741 740 739 738 737 735 734 733 732 732 733 734 736 738 739 741 742 743 744 745 745 745 746 746 746 747 746 744 743 741 739 737 735 732 727 722 716 709 702 697 692 686 681 678 673 668 667
772 769 770 769 767 766 764 759 754 752 752 751 749 747 744 743 744 743 742 741 736 731 731 730 729 730 731 730 732 734 735 737 738 738 739 739 740 741 741 740 739 738 737 736 734 733 732 731 731 732 733 735 736 738 740 741 742 743 744 744 744 745 745 745 746 745 743 742 740 739 737 735 732 728 723 717 711 705 700 695 689 684 681 677 673 671
770 771 771 769 767 763 758 755 753 752 750 746 746 745 743 742 743 742 740 739 735 731 732 732 731 730 731 732 732 733 736 737 736 737 739 739 739 740 739 738 738 736 735 734 733 731 731 730 730 730 731 733 735 736 738 739 740 741 742 743 743 743 744 744 744 744 743 741 740 738 737 734 732 729 724 719 714 709 704 698 693 689 685 681 677 675
769 772 771 767 766 764 758 753 752 751 747 744 744 743 740 740 739 738 737 735 733 732 732 732 732 732 731 731 731 732 735 736 735 737 738 738 739 739 738 738 736 734 734 733 731 730 730 729 728 728 729 731 733 734 736 738 738 740 741 742 742 743 743 743 744 743 742 741 739 738 737 735 732 729 726 722 717 712 706 701 697 693 689 686 682 679
768 771 771 766 764 763 756 749 749 751 748 744 744 742 740 739 737 736 735 733 731 732 731 730 731 732 730 730 731 733 734 736 737 737 737 738 738 738 737 737 735 733 732 730 729 729 728 727 726 726 727 729 730 733 735 736 737 739 740 741 742 742 742 743 743 742 742 740 739 738 736 735 732 730 728 724 720 715 709 705 701 697 694 691 688 684
767 770 767 763 762 760 754 750 752 752 748 744 743 742 740 737 737 737 735 732 731 732 732 732 732 731 729 730 732 733 734 736 737 737 737 737 737 737 737 735 733 732 731 729 728 727 726 725 725 725 726 727 729 732 734 735 736 738 740 741 742 742 742 742 742 742 741 740 739 737 736 735 733 731 729 726 722 718 714 710 707 703 699 697 693 689
766 767 763 763 765 761 753 751 753 753 749 746 745 744 742 739 738 738 736 733 732 733 734 735 734 731 730 731 732 733 734 736 737 738 737 737 737 737 736 734 733 731 729 728 727 726 724 724 725 725 726 726 728 731 732 734 735 737 739 741 741 741 741 741 741 741 741 740 739 738 736 735 733 732 730 727 725 721 718 715 712 708 705 702 699 695
761 759 757 759 760 755 749 748 749 751 750 746 744 745 743 739 738 738 737 736 736 736 737 737 734 730 731 733 733 734 735 735 736 737 737 737 738 737 735 734 733 730 728 727 726 724 723 723 724 724 724 725 727 729 731 733 735 736 739 740 740 741 741 741 741 741 741 740 739 738 737 735 734 732 730 728 726 723 720 717 715 712 710 708 704 701